STARLINK-32079, 60336

Orbit data source: Space-Track

STARLINK-32079, 60336 is a payload satellite owned by SpaceX/Seattle (US) in LEO that was launched on Fri, 02 Aug 2024 UTC via an FALCON 9 launch vehicle from the Air Force Eastern Test Range (AFETR). Payload-class satellites include a variety of spacecraft equipped with specific instruments for various scientific and technological missions. These include communications satellites like Starlink; space stations such as the ISS; scientific satellites like the Hubble; Earth observation satellites from companies like Planet Labs, Umbra, and HawkEye 360; GPS; miniature CubeSats for education and research; and military/defense satellites.

Loading next visibility...
Identifier
60336, 2024-136H
Orbit
LEO
Last TLE update
4 hours ago
Origin
Manufacturer
SpaceX/Seattle
Mission
Operational Commercial Communications
Bus & Motor
STARLINK V2M, Unknown motor
Mass
730 kg wet, ~700 kg dry
Launch date (UTC)
2024-08-02 (11 months ago)
Launch vehicle
FALCON 9
Launch site
Air Force Eastern Test Range (AFETR)
Object type
Payload
Rocket body
Debris
Shape & HBR
Box + 2 Pan, 29 m
Radar Cross Section
33.884 m², Large (>1 m²)

Expand to show TLE details & history

TLE from 4 hours ago
0 STARLINK-32079
1 60336U 24136H   25182.23095635  .00000226  00000-0  19768-4 0  9990
2 60336  53.1594 163.7716 0001180  80.5151 279.5983 15.30197580 52377
Epoch: 2025-07-01T05:32Z
TLE epoch observation values (Epoch: 2025-07-01T05:32:34.628Z)
Latitude
-0.00004°
Longitude
161.09791°
Altitude
475.987 km
Speed
7.629 km/s
True Right ascension
10h 55m 05s
True Declination
0° 00' 00"
Sunlit
Object was in daylight at epoch
Visualization orbit readout
Latitude
32.46135°
Longitude
-47.91614°
Altitude
476.895 km
Speed
7.632 km/s
Apparent Right ascension
21h 21m 16s
Apparent Declination
-24° 39' 49"
Sunlit
Object is in full shadow
Visualization observer readout
Local Sidereal Time
20:54:58
Azimuth
173.399° S
Elevation
25.13°
Doppler factor
1
Orbital elements
Apogee altitude
476.288 km
Perigee altitude
474.67 km
Semi-major axis
6,853.616 km
Eccentricity
0.00012
Inclination
53.1594°
RAAN
163.7716°
Arg. of periapsis
80.5151°
True anomaly
Unknown
Mean anomaly
279.5983°
Eccentric anomaly
Unknown
Mean motion
3.82528 °/min
Orbital period
94.11 mins
BSTAR
0.000019768
Loading maneuver chart data...
Loading SW <> Apogee altitude chart data...
Loading historical data...
Loading historical data...
Loading historical data...
Loading historical data...
Loading historical data...
Loading historical data...
Loading historical data...

STARLINK-32079 Visibility forecast

Observer location: undefined°, undefined°

Span
Click to sort rows by Start time (UTC) header in descending order
Start Az.
Max El. time (UTC)
Max El. Az.
Max El.
End time (UTC)
End Az.
4 mins2025-07-02 00:31:42.688Z158.932° S2025-07-02 00:32:42.688Z135.555° SSE21.056°2025-07-02 00:35:42.688Z78.048° E
5 mins2025-07-02 02:08:42.688Z266.126° W2025-07-02 02:10:42.688Z328.953° NNW33.836°2025-07-02 02:13:42.688Z36.239° NE
4 mins2025-07-02 07:05:42.688Z344.743° N2025-07-02 07:07:42.688Z32.297° NE23.207°2025-07-02 07:09:42.688Z75.484° E
5 mins2025-07-02 08:43:42.688Z287.88° WNW2025-07-02 08:45:42.688Z219.117° SW36.137°2025-07-02 08:48:42.688Z152.752° SSE
|